DT_LEITURA;HR_LEITURA;MED-PressaoAtm[hPa];VAL-TempExt[oC];VAL-UmidExt[%UR];VAL-TempInt[oC];VAL-UmidInt[%UR];Dir-Vento[grau];Vel-Vento[m/s];Precipitação[mm/h]
02/09/2026;00:04:00;1016,5;;;18,4;81;241;3,9;0,0
02/09/2026;00:09:00;1016,4;;;18,4;81;234;4,9;0,0
02/09/2026;00:14:00;1016,4;;;18,4;81;242;3,9;0,0
02/09/2026;00:19:00;1016,4;;;18,4;81;237;3,9;0,0
02/09/2026;00:24:00;1016,4;;;18,4;81;238;3,8;0,0
02/09/2026;00:29:00;1016,5;;;18,4;81;248;4,7;0,0
02/09/2026;00:34:00;1016,5;;;18,3;81;230;4,3;0,0
02/09/2026;00:39:00;1016,5;;;18,3;81;235;4,0;0,0
02/09/2026;00:44:00;1016,5;;;18,3;81;233;4,1;0,0
02/09/2026;00:49:00;1016,5;;;18,3;81;237;4,0;0,0
02/09/2026;00:54:00;1016,5;;;18,3;81;242;4,5;0,0
02/09/2026;00:59:00;1016,6;;;18,3;81;235;4,4;0,0
02/09/2026;01:04:00;1016,7;;;18,3;81;227;4,7;0,0
02/09/2026;01:09:00;1016,7;;;18,3;81;240;4,4;0,0
02/09/2026;01:14:00;1016,8;;;18,2;81;240;4,4;0,0
02/09/2026;01:19:00;1016,8;;;18,2;81;236;4,8;0,0
02/09/2026;01:24:00;1016,8;;;18,2;81;237;4,2;0,0
02/09/2026;01:29:00;1016,7;;;18,2;81;234;4,5;0,0
02/09/2026;01:34:00;1016,7;;;18,2;81;236;4,9;0,0
02/09/2026;01:39:00;1016,6;;;18,2;81;229;4,0;0,0
02/09/2026;01:44:00;1016,6;;;18,1;81;242;4,4;0,0
02/09/2026;01:49:00;1016,6;;;18,1;81;241;4,4;0,0
02/09/2026;01:54:00;1016,6;;;18,0;81;241;4,6;0,0
02/09/2026;01:59:00;1016,6;;;18,0;81;228;4,5;0,0
02/09/2026;02:04:00;1016,5;;;18,0;81;237;4,1;0,0
02/09/2026;02:09:00;1016,5;;;17,9;81;246;5,0;0,0
02/09/2026;02:14:00;1016,5;;;17,9;81;242;4,7;0,0
02/09/2026;02:19:00;1016,5;;;17,9;81;238;4,6;0,0
02/09/2026;02:24:00;1016,6;;;17,9;81;234;5,1;0,0
02/09/2026;02:29:00;1016,6;;;17,9;81;245;4,7;0,0
02/09/2026;02:34:00;1016,7;;;17,9;81;240;4,5;0,0
02/09/2026;02:39:00;1016,8;;;17,9;81;242;4,7;0,0
02/09/2026;02:44:00;1016,8;;;17,8;81;241;4,6;0,0
02/09/2026;02:49:00;1016,7;;;17,8;81;242;4,0;0,0
02/09/2026;02:54:00;1016,7;;;17,7;81;250;4,5;0,0
02/09/2026;02:59:00;1016,7;;;17,7;81;240;4,6;0,0
02/09/2026;03:04:00;1016,6;;;17,6;81;243;4,5;0,0
02/09/2026;03:09:00;1016,6;;;17,6;81;245;5,5;0,0
02/09/2026;03:14:00;1016,7;;;17,6;81;250;5,4;0,0
02/09/2026;03:19:00;1016,7;;;17,5;81;246;4,6;0,0
02/09/2026;03:24:00;1016,7;;;17,5;81;242;5,0;0,0
02/09/2026;03:29:00;1016,7;;;17,4;81;244;4,4;0,0
02/09/2026;03:34:00;1016,6;;;17,4;81;247;4,7;0,0
02/09/2026;03:39:00;1016,6;;;17,4;81;241;4,7;0,0
02/09/2026;03:44:00;1016,6;;;17,3;81;238;4,3;0,0
02/09/2026;03:49:00;1016,6;;;17,3;81;242;4,1;0,0
02/09/2026;03:54:00;1016,6;;;17,2;81;245;4,0;0,0
02/09/2026;03:59:00;1016,7;;;17,2;81;248;3,5;0,0
02/09/2026;04:04:00;1016,7;;;17,1;81;246;3,8;0,0
02/09/2026;04:09:00;1016,7;;;17,1;81;242;3,9;0,0
02/09/2026;04:14:00;1016,8;;;17,0;81;241;3,5;0,0
02/09/2026;04:19:00;1016,8;;;16,9;81;248;2,7;0,0
02/09/2026;04:24:00;1016,9;;;16,9;81;244;2,9;0,0
02/09/2026;04:29:00;1016,9;;;16,8;81;254;3,2;0,0
02/09/2026;04:34:00;1017,0;;;16,8;81;251;2,7;0,0
02/09/2026;04:39:00;1017,0;;;16,7;81;254;2,3;0,0
02/09/2026;04:44:00;1016,9;;;16,7;81;239;1,9;0,0
02/09/2026;04:49:00;1016,9;;;16,6;81;236;2,2;0,0
02/09/2026;04:54:00;1016,9;;;16,6;81;235;2,7;0,0
02/09/2026;04:59:00;1016,9;;;16,5;81;231;2,7;0,0
02/09/2026;05:04:00;1016,9;;;16,5;81;238;2,2;0,0
02/09/2026;05:09:00;1017,0;;;16,4;81;232;2,4;0,0
02/09/2026;05:14:00;1017,0;;;16,4;81;224;1,7;0,0
02/09/2026;05:19:00;1017,1;;;16,3;81;225;2,4;0,0
02/09/2026;05:29:00;1017,2;;;16,3;81;234;2,1;0,0
02/09/2026;05:34:00;1017,2;;;16,2;81;237;2,2;0,0
02/09/2026;05:39:00;1017,3;;;16,2;81;239;2,1;0,0
02/09/2026;05:44:00;1017,3;;;16,1;81;220;1,6;0,0
02/09/2026;05:49:00;1017,4;;;16,1;81;228;1,7;0,0
02/09/2026;05:54:00;1017,4;;;16,0;81;233;2,4;0,0
02/09/2026;05:59:00;1017,4;;;16,0;81;226;2,5;0,0
02/09/2026;06:04:00;1017,4;;;16,0;82;229;2,9;0,0
02/09/2026;06:09:00;1017,5;;;16,0;82;245;3,6;0,0
02/09/2026;06:14:00;1017,5;;;16,0;82;245;3,0;0,0
02/09/2026;06:19:00;1017,6;;;16,0;82;241;2,5;0,0
02/09/2026;06:24:00;1017,6;;;16,0;81;246;2,6;0,0
02/09/2026;06:29:00;1017,6;;;16,0;81;243;2,9;0,0
02/09/2026;06:34:00;1017,7;;;16,0;81;242;2,7;0,0
02/09/2026;06:39:00;1017,7;;;16,0;81;247;2,2;0,0
02/09/2026;06:44:00;1017,7;;;15,9;81;245;2,4;0,0
02/09/2026;06:49:00;1017,7;;;15,9;81;237;2,4;0,0
02/09/2026;06:54:00;1017,8;;;15,9;81;228;2,2;0,0
02/09/2026;06:59:00;1017,9;;;15,9;81;234;2,4;0,0
02/09/2026;07:04:00;1018,0;;;15,9;81;228;2,6;0,0
02/09/2026;07:09:00;1018,1;;;15,9;81;241;3,0;0,0
02/09/2026;07:14:00;1018,2;;;16,0;82;242;2,2;0,0
02/09/2026;07:19:00;1018,2;;;16,0;81;239;1,9;0,0
02/09/2026;07:24:00;1018,4;;;16,0;81;251;2,0;0,0
02/09/2026;07:29:00;1018,4;;;16,0;82;252;2,2;0,0
02/09/2026;07:34:00;1018,4;;;16,0;82;246;2,3;0,0
02/09/2026;07:39:00;1018,4;;;16,1;82;257;2,1;0,0
02/09/2026;07:44:00;1018,5;;;16,1;82;252;2,8;0,0
02/09/2026;07:49:00;1018,6;;;16,1;82;260;3,1;0,0
02/09/2026;07:54:00;1018,7;;;16,2;82;250;3,2;0,0
02/09/2026;07:59:00;1018,7;;;16,3;83;240;2,9;0,0
02/09/2026;08:04:00;1018,7;;;16,4;84;256;2,7;0,0
02/09/2026;08:09:00;1018,8;;;16,6;85;251;3,2;0,0
02/09/2026;08:14:00;1018,8;;;16,8;85;241;3,4;0,0
02/09/2026;08:19:00;1018,8;;;17,1;86;246;3,4;0,0
02/09/2026;08:24:00;1018,9;;;17,3;85;248;3,8;0,0
02/09/2026;08:29:00;1018,9;;;17,5;85;244;4,5;0,0
02/09/2026;08:34:00;1019,0;;;17,7;84;243;3,4;0,0
02/09/2026;08:39:00;1019,2;;;17,9;84;234;4,1;0,0
02/09/2026;08:44:00;1019,4;;;18,1;83;236;4,7;0,0
02/09/2026;08:49:00;1019,5;;;18,2;83;234;4,0;0,0
02/09/2026;08:54:00;1019,5;;;18,4;83;238;4,2;0,0
02/09/2026;08:59:00;1019,6;;;18,5;83;240;3,4;0,0
02/09/2026;09:04:00;1019,5;;;18,6;83;239;4,4;0,0
02/09/2026;09:09:00;1019,6;;;18,7;82;228;3,7;0,0
02/09/2026;09:14:00;1019,6;;;18,8;82;224;4,5;0,0
02/09/2026;09:19:00;1019,6;;;18,9;82;228;4,4;0,0
02/09/2026;09:24:00;1019,7;;;19,0;82;227;4,5;0,0
02/09/2026;09:29:00;1019,8;;;19,0;82;227;4,6;0,0
02/09/2026;09:34:00;1019,9;;;19,1;82;232;4,5;0,0
02/09/2026;09:39:00;1020,0;;;19,2;82;230;4,7;0,0
02/09/2026;09:44:00;1020,0;;;19,2;81;227;4,8;0,0
02/09/2026;09:49:00;1020,1;;;19,3;81;228;4,9;0,0
02/09/2026;09:54:00;1020,1;;;19,3;81;226;4,4;0,0
02/09/2026;09:59:00;1020,0;;;19,4;81;230;3,8;0,0
02/09/2026;10:04:00;1020,0;;;19,5;81;229;4,6;0,0
02/09/2026;10:09:00;1020,0;;;19,5;81;233;4,2;0,0
02/09/2026;10:14:00;1019,9;;;19,6;81;227;4,2;0,0
02/09/2026;10:19:00;1019,9;;;19,6;81;235;4,7;0,0
02/09/2026;10:24:00;1020,0;;;19,7;81;231;4,3;0,0
02/09/2026;10:29:00;1020,0;;;19,8;81;222;4,1;0,0
02/09/2026;10:34:00;1020,0;;;19,8;81;232;3,6;0,0
02/09/2026;10:39:00;1020,0;;;19,9;81;235;3,7;0,0
02/09/2026;10:44:00;1020,0;;;20,0;81;232;3,3;0,0
02/09/2026;10:49:00;1019,9;;;20,1;81;246;3,7;0,0
02/09/2026;10:54:00;1020,0;;;20,1;81;235;3,5;0,0
02/09/2026;10:59:00;1019,9;;;20,2;81;244;3,5;0,0
02/09/2026;11:04:00;1019,9;;;20,4;82;240;3,3;0,0
02/09/2026;11:09:00;1019,9;;;20,5;81;239;2,9;0,0
02/09/2026;11:14:00;1019,8;;;20,6;81;242;2,5;0,0
02/09/2026;11:19:00;1019,9;;;20,7;81;238;3,1;0,0
02/09/2026;11:24:00;1019,9;;;20,8;81;245;4,1;0,0
02/09/2026;11:29:00;1020,0;;;20,9;81;239;3,4;0,0
02/09/2026;11:34:00;1019,9;;;20,9;80;252;3,9;0,0
02/09/2026;11:39:00;1019,9;;;20,9;80;254;2,7;0,0
02/09/2026;11:44:00;1019,9;;;21,0;81;253;2,4;0,0
02/09/2026;11:49:00;1020,0;;;21,1;81;250;2,2;0,0
02/09/2026;11:54:00;1019,8;;;21,2;81;247;2,3;0,0
02/09/2026;11:59:00;1019,7;;;21,3;81;306;1,3;0,0
02/09/2026;12:04:00;1019,7;;;21,4;80;235;2,2;0,0
02/09/2026;12:09:00;1019,7;;;21,4;80;132;1,4;0,0
02/09/2026;12:14:00;1019,7;;;21,4;80;282;2,2;0,0
02/09/2026;12:19:00;1019,7;;;21,4;80;169;2,3;0,0
02/09/2026;12:24:00;1019,7;;;21,3;80;312;1,7;0,0
02/09/2026;12:29:00;1019,7;;;21,2;80;359;1,7;0,0
02/09/2026;12:34:00;1019,7;;;21,2;80;223;1,8;0,0
02/09/2026;12:39:00;1019,6;;;21,2;80;296;1,7;0,0
02/09/2026;12:44:00;1019,5;;;21,1;80;264;2,5;0,0
02/09/2026;12:49:00;1019,4;;;21,1;80;276;2,8;0,0
02/09/2026;12:54:00;1019,3;;;21,1;81;260;2,8;0,0
02/09/2026;12:59:00;1019,3;;;21,1;81;281;2,9;0,0
02/09/2026;13:04:00;1019,2;;;21,1;80;276;3,4;0,0
02/09/2026;13:09:00;1019,2;;;21,1;81;271;3,1;0,0
02/09/2026;13:14:00;1019,1;;;21,1;81;270;2,8;0,0
02/09/2026;13:19:00;1019,1;;;21,2;81;280;2,5;0,0
02/09/2026;13:24:00;1019,0;;;21,2;81;276;2,3;0,0
02/09/2026;13:29:00;1018,9;;;21,3;81;262;2,6;0,0
02/09/2026;13:34:00;1018,9;;;21,3;81;267;2,8;0,0
02/09/2026;13:39:00;1018,7;;;21,4;80;264;3,1;0,0
02/09/2026;13:44:00;1018,5;;;21,5;80;255;3,0;0,0
02/09/2026;13:49:00;1018,5;;;21,6;80;270;2,8;0,0
02/09/2026;13:54:00;1018,5;;;21,6;80;276;2,4;0,0
02/09/2026;13:59:00;1018,5;;;21,7;80;257;2,8;0,0
02/09/2026;14:04:00;1018,5;;;21,7;80;290;2,2;0,0
02/09/2026;14:09:00;1018,4;;;21,8;80;285;2,5;0,0
02/09/2026;14:14:00;1018,4;;;21,8;80;282;2,4;0,0
02/09/2026;14:19:00;1018,4;;;21,9;80;267;2,2;0,0
02/09/2026;14:24:00;1018,5;;;22,0;80;281;2,0;0,0
02/09/2026;14:29:00;1018,5;;;22,0;80;285;2,2;0,0
02/09/2026;14:34:00;1018,5;;;22,0;80;265;2,0;0,0
02/09/2026;14:39:00;1018,5;;;22,1;80;262;2,9;0,0
02/09/2026;14:44:00;1018,5;;;22,2;79;265;3,5;0,0
02/09/2026;14:49:00;1018,5;;;22,2;79;261;2,3;0,0
02/09/2026;14:54:00;1018,5;;;22,2;79;280;2,2;0,0
02/09/2026;14:59:00;1018,5;;;22,2;79;274;2,5;0,0
02/09/2026;15:04:00;1018,6;;;22,2;79;286;1,9;0,0
02/09/2026;15:09:00;1018,6;;;22,2;79;277;2,0;0,0
02/09/2026;15:14:00;1018,6;;;22,2;79;290;2,0;0,0
02/09/2026;15:19:00;1018,6;;;22,2;79;286;2,4;0,0
02/09/2026;15:24:00;1018,7;;;22,3;79;269;2,3;0,0
02/09/2026;15:29:00;1018,7;;;22,3;79;280;1,9;0,0
02/09/2026;15:34:00;1018,8;;;22,3;79;294;2,0;0,0
02/09/2026;15:39:00;1018,7;;;22,3;79;283;2,2;0,0
02/09/2026;15:44:00;1018,8;;;22,3;79;283;2,3;0,0
02/09/2026;15:49:00;1018,8;;;22,3;78;284;2,1;0,0
02/09/2026;15:54:00;1018,8;;;22,3;79;314;1,8;0,0
02/09/2026;15:59:00;1018,8;;;22,3;78;282;1,9;0,0
02/09/2026;16:04:00;1018,8;;;22,3;78;313;1,8;0,0
02/09/2026;16:09:00;1018,8;;;22,3;78;332;1,7;0,0
02/09/2026;16:14:00;1018,8;;;22,3;78;8;2,1;0,0
02/09/2026;16:19:00;1018,8;;;22,3;78;19;1,7;0,0
02/09/2026;16:24:00;1018,8;;;22,2;78;25;1,8;0,0
02/09/2026;16:29:00;1018,8;;;22,1;77;11;2,0;0,0
02/09/2026;16:34:00;1018,8;;;22,1;77;21;2,4;0,0
02/09/2026;16:39:00;1018,8;;;22,0;77;21;2,1;0,0
02/09/2026;16:44:00;1018,8;;;21,8;77;17;1,5;0,0
02/09/2026;16:49:00;1018,8;;;21,8;78;17;1,7;0,0
02/09/2026;16:54:00;1018,8;;;21,8;77;20;2,0;0,0
02/09/2026;16:59:00;1018,8;;;21,7;77;26;1,7;0,0
02/09/2026;17:04:00;1018,8;;;21,7;77;28;1,5;0,0
02/09/2026;17:09:00;1018,8;;;21,7;77;8;1,3;0,0
02/09/2026;17:14:00;1018,8;;;21,6;77;26;1,6;0,0
02/09/2026;17:19:00;1018,8;;;21,6;77;23;1,6;0,0
02/09/2026;17:24:00;1018,8;;;21,5;77;34;1,3;0,0
02/09/2026;17:29:00;1018,8;;;21,4;77;29;1,5;0,0
02/09/2026;17:34:00;1018,8;;;21,3;76;37;1,5;0,0
02/09/2026;17:39:00;1018,8;;;21,1;76;37;1,7;0,0
02/09/2026;17:44:00;1018,7;;;20,8;76;42;1,6;0,0
02/09/2026;17:49:00;1018,7;;;20,5;77;39;1,7;0,0
02/09/2026;17:54:00;1018,7;;;20,2;78;35;2,0;0,0
02/09/2026;17:59:00;1018,7;;;20,0;78;38;1,8;0,0
02/09/2026;18:04:00;1018,8;;;19,8;78;33;1,9;0,0
02/09/2026;18:09:00;1018,7;;;19,7;79;35;2,1;0,0
02/09/2026;18:14:00;1018,7;;;19,6;79;30;2,1;0,0
02/09/2026;18:19:00;1018,7;;;19,5;79;36;2,3;0,0
02/09/2026;18:24:00;1018,7;;;19,4;79;35;2,4;0,0
02/09/2026;18:29:00;1018,7;;;19,3;79;33;2,3;0,0
02/09/2026;18:34:00;1018,7;;;19,3;79;34;2,2;0,0
02/09/2026;18:39:00;1018,7;;;19,2;79;33;2,4;0,0
02/09/2026;18:44:00;1018,7;;;19,1;79;32;2,4;0,0
02/09/2026;18:49:00;1018,7;;;19,1;79;31;2,5;0,0
02/09/2026;18:54:00;1018,7;;;19,0;79;28;2,8;0,0
02/09/2026;18:59:00;1018,7;;;19,0;79;29;2,9;0,0
02/09/2026;19:04:00;1018,7;;;19,0;79;25;2,8;0,0
02/09/2026;19:09:00;1018,7;;;18,9;79;25;3,1;0,0
02/09/2026;19:14:00;1018,7;;;18,9;79;26;3,0;0,0
02/09/2026;19:19:00;1018,8;;;18,9;79;26;3,0;0,0
02/09/2026;19:24:00;1018,8;;;18,8;79;29;2,9;0,0
02/09/2026;19:29:00;1018,8;;;18,8;79;29;3,4;0,0
02/09/2026;19:34:00;1018,7;;;18,8;79;26;3,1;0,0
02/09/2026;19:39:00;1018,7;;;18,8;79;24;3,4;0,0
02/09/2026;19:44:00;1018,7;;;18,7;79;27;3,7;0,0
02/09/2026;19:49:00;1018,7;;;18,7;79;24;3,5;0,0
02/09/2026;19:54:00;1018,7;;;18,7;79;26;3,4;0,0
02/09/2026;19:59:00;1018,7;;;18,7;79;25;3,5;0,0
02/09/2026;20:04:00;1018,8;;;18,7;79;25;3,5;0,0
02/09/2026;20:09:00;1018,8;;;18,7;79;24;3,8;0,0
02/09/2026;20:14:00;1018,8;;;18,7;79;24;3,6;0,0
02/09/2026;20:19:00;1018,7;;;18,6;79;22;3,6;0,0
02/09/2026;20:24:00;1018,7;;;18,6;79;24;3,8;0,0
02/09/2026;20:29:00;1018,8;;;18,6;79;23;3,3;0,0
02/09/2026;20:34:00;1018,8;;;18,6;79;22;2,9;0,0
02/09/2026;20:39:00;1018,9;;;18,6;79;22;3,0;0,0
02/09/2026;20:44:00;1018,9;;;18,6;79;23;3,0;0,0
02/09/2026;20:49:00;1018,9;;;18,6;79;24;3,8;0,0
02/09/2026;20:54:00;1018,8;;;18,6;78;22;4,1;0,0
02/09/2026;20:59:00;1018,8;;;18,6;78;24;3,6;0,0
02/09/2026;21:04:00;1018,8;;;18,5;78;25;3,7;0,0
02/09/2026;21:09:00;1018,7;;;18,5;78;24;4,1;0,0
02/09/2026;21:14:00;1018,7;;;18,5;78;25;4,5;0,0
02/09/2026;21:19:00;1018,6;;;18,5;78;24;4,4;0,0
02/09/2026;21:24:00;1018,6;;;18,5;78;26;4,6;0,0
02/09/2026;21:29:00;1018,5;;;18,5;78;24;4,6;0,0
02/09/2026;21:34:00;1018,6;;;18,5;78;24;4,4;0,0
02/09/2026;21:39:00;1018,6;;;18,5;78;22;4,2;0,0
02/09/2026;21:44:00;1018,6;;;18,5;78;23;4,5;0,0
02/09/2026;21:49:00;1018,5;;;18,5;78;24;4,6;0,0
02/09/2026;21:54:00;1018,5;;;18,5;78;23;4,7;0,0
02/09/2026;21:59:00;1018,5;;;18,5;78;23;4,6;0,0
02/09/2026;22:04:00;1018,5;;;18,5;78;24;5,0;0,0
02/09/2026;22:09:00;1018,4;;;18,5;78;25;4,9;0,0
02/09/2026;22:14:00;1018,4;;;18,5;78;29;4,3;0,0
02/09/2026;22:19:00;1018,5;;;18,5;78;23;4,9;0,0
02/09/2026;22:24:00;1018,5;;;18,5;78;24;5,0;0,0
02/09/2026;22:29:00;1018,5;;;18,5;78;24;5,4;0,0
02/09/2026;22:34:00;1018,4;;;18,5;78;24;5,8;0,0
02/09/2026;22:39:00;1018,4;;;18,5;78;24;5,4;0,0
02/09/2026;22:44:00;1018,3;;;18,5;78;24;5,4;0,0
02/09/2026;22:49:00;1018,3;;;18,5;78;23;5,0;0,0
02/09/2026;22:54:00;1018,2;;;18,4;78;23;5,3;0,0
02/09/2026;22:59:00;1018,1;;;18,4;78;25;5,7;0,0
02/09/2026;23:04:00;1018,0;;;18,4;78;25;5,7;0,0
02/09/2026;23:09:00;1017,9;;;18,4;78;23;5,5;0,0
02/09/2026;23:14:00;1017,8;;;18,4;78;23;5,4;0,0
02/09/2026;23:19:00;1017,8;;;18,4;78;23;6,1;0,0
02/09/2026;23:24:00;1017,7;;;18,4;78;23;5,4;0,0
02/09/2026;23:29:00;1017,7;;;18,4;78;21;5,2;0,0
02/09/2026;23:34:00;1017,7;;;18,4;78;24;6,2;0,0
02/09/2026;23:39:00;1017,6;;;18,4;78;22;6,0;0,0
02/09/2026;23:44:00;1017,5;;;18,3;78;23;6,1;0,0
02/09/2026;23:49:00;1017,4;;;18,3;78;25;6,2;0,0
02/09/2026;23:54:00;1017,3;;;18,3;78;22;6,1;0,0
02/09/2026;23:59:00;1017,2;;;18,3;78;22;6,0;0,0
